Location: Москва
(55.7504°N, 37.6175°E)
Time: 06:56:54
(UTC+03:00)

Nauka - Pass Details

Date: 25 September 2021
Orbit: 417 x 423 km, 51.6° (Epoch: 19 October)

Event Time Altitude Azimuth Distance (km) Brightness Sun altitude
Rises 19:34:37 0° 255° (WSW) 2,363 ? -11.2°
Reaches altitude 10° 19:36:47 10° 248° (WSW) 1,500 ? -11.5°
Maximum altitude 19:39:58 41° 177° (S) 626 ? -11.9°
Enters shadow 19:41:49 21° 117° (ESE) 1,013 ? -12.2°
